Find Local Weather

World > North America > United States > Tennessee

Mountain City, Tennessee Regional Weather

Lat: 36.47N, Lon: 81.81W
Wx Zone: TNZ018
Warning FLW WEATHER ALERT - (More Info. Click Here) Warning
Feedback
Expires:201809250100;;159464
ASUS44 KMEG 250010
RWRTN 
TENNESSEE HOURLY STATE WEATHER ROUNDUP
NATIONAL WEATHER SERVICE MEMPHIS TN
700 PM CDT MON SEP 24 2018


TNZ017-018-042-046-047-250100-
NORTHEAST TENNESSEE
  
CITY           SKY/WX    TMP DP  RH WIND       PRES   REMARKS
TRI CITIES     CLOUDY    72  63  73 SE6       30.18R                  
ELIZABETHTON     N/A     72  61  68 E13       30.19R                  
GREENEVILLE    CLOUDY    72  64  78 CALM      30.16R                  
$$


SKY/WX - Weather  TMP - Temperature  DP - Dew Point  RH - Relative Humidity
WIND - Wind Direction/Speed PRES - Barometric Pressure